Location: Byszew
(52.1813°N, 19.2693°E)
Time: 19:02:37
(UTC+00:00)

Cosmos 962 Rocket - Pass Details

Date: 03 March 2021
Orbit: 951 x 999 km, 83.0° (Epoch: 17 April)

Event Time Altitude Azimuth Distance (km) Brightness Sun altitude
Rises 18:09:20 0° 186° (S) 3,645 7.5 -16.5°
Reaches altitude 10° 18:11:48 10° 186° (S) 2,709 6.8 -16.9°
Maximum altitude 18:18:02 87° 100° (E) 989 4.5 -17.8°
Drops below altitude 10° 18:24:23 10° 11° (N) 2,761 6.9 -18.8°
Sets 18:26:56 0° 11° (N) 3,720 7.6 -19.2°
